Starlink 3665

operational
NORAD ID: 52098 Int'l Des: 2022-029 Owner: SPXS Country: US Constellation: starlink
LEOCIRCULAR

Über Starlink 3665

Beschreibung wird geladen...

Live-Position

3D-Globus wird geladen...

Nächste Überflüge

Höhenverlauf

Altitude vs Time

uPlot chart will show altitude changes over time

Zweizeiliger Elementsatz

1 52098U 22029L 25258.99453243 .00000138 00000-0 26783-4 0 9992
2 52098 53.2175 153.3571 0001374 86.7406 273.3744 15.08843245194284
Epoch: 15. Sept. 2025 • Age: 20 hours

Aktueller Status

Höhe 548.4 km
Geschwindigkeit 7.59 km/s
Subsatellitenpunkt -27.28°S, 57.74°E
Startdatum 19. März 2022
Alter 3.4 years
Typ internet

Technische Details

Klassifizierung Payload
Masse 297.00 kg
Trockenmasse 275.00 kg
Gesamtmasse 297.00 kg
Länge 0.20 m
Durchmesser 2.80 m
Spannweite 9.00 m
Form Box + pan
Hersteller SPXS
Bus-Typ Starlink
Phasenstatus In Orbit
Besitzer/Staat SPXS/US

Große Konstellationen

Loading constellations...